Location: Unspecified
(0.0000°N, 0.0000°E)
Time: 11:25:01
(UTC+00:00)

LightSail 2 - Pass Details

Date: 22 August 2019
Orbit: 696 x 730 km, 24.0° (Epoch: 07 December)

Event Time Altitude Azimuth Distance (km) Brightness Sun altitude
Exits shadow 03:26:26 14° 116° (ESE) 1,934 7.8 -38.2°
Drops below altitude 10° 03:27:08 10° 116° (ESE) 2,194 8.1 -38.0°
Sets 03:29:35 0° 116° (ESE) 3,122 9.0 -37.4°
